Time,TemperatureF,DewpointF,PressureIn,WindDirection,WindDirectionDegrees,WindSpeedMPH,WindSpeedGustMPH,Humidity,HourlyPrecipIn,Conditions,Clouds,dailyrainin,SoftwareType,DateUTC
2013-07-16 00:11:00,70.0,69.7,30.03,NW,315,0.0,-999.0,99,-99.99,,,0.00,Acu-Link.com,2013-07-16 04:11:00,
2013-07-16 00:26:00,69.8,69.5,30.04,NW,315,0.0,-999.0,99,-99.99,,,0.00,Acu-Link.com,2013-07-16 04:26:00,
2013-07-16 00:41:00,69.8,69.5,30.04,NW,315,0.0,-999.0,99,-99.99,,,0.00,Acu-Link.com,2013-07-16 04:41:00,
2013-07-16 00:57:00,69.6,69.3,30.04,NW,315,0.0,-999.0,99,-99.99,,,0.00,Acu-Link.com,2013-07-16 04:57:00,
2013-07-16 01:12:00,69.4,69.1,30.04,West,270,0.0,-999.0,99,-99.99,,,0.00,Acu-Link.com,2013-07-16 05:12:00,
2013-07-16 01:27:00,69.4,69.1,30.04,West,270,0.0,-999.0,99,-99.99,,,0.00,Acu-Link.com,2013-07-16 05:27:00,
2013-07-16 01:42:00,69.3,69.0,30.03,NW,315,0.0,-999.0,99,-99.99,,,0.00,Acu-Link.com,2013-07-16 05:42:00,
2013-07-16 01:57:00,69.4,69.1,30.03,WNW,292,0.0,-999.0,99,-99.99,,,0.01,Acu-Link.com,2013-07-16 05:57:00,
2013-07-16 02:12:00,69.4,69.1,30.03,NNW,337,0.0,-999.0,99,-99.99,,,0.01,Acu-Link.com,2013-07-16 06:12:00,
2013-07-16 02:28:00,69.4,69.1,30.03,NNW,337,0.0,-999.0,99,-99.99,,,0.01,Acu-Link.com,2013-07-16 06:28:00,
2013-07-16 02:43:00,69.4,69.1,30.03,NNW,337,0.0,-999.0,99,-99.99,,,0.01,Acu-Link.com,2013-07-16 06:43:00,
2013-07-16 02:58:00,69.3,69.0,30.03,NNW,337,0.0,-999.0,99,-99.99,,,0.01,Acu-Link.com,2013-07-16 06:58:00,
2013-07-16 03:14:00,69.3,69.0,30.03,NNW,337,0.0,-999.0,99,-99.99,,,0.01,Acu-Link.com,2013-07-16 07:14:00,
2013-07-16 03:29:00,69.1,68.8,30.03,West,270,0.0,-999.0,99,-99.99,,,0.01,Acu-Link.com,2013-07-16 07:29:00,
2013-07-16 03:44:00,69.1,68.8,30.02,NNW,337,0.0,-999.0,99,-99.99,,,0.01,Acu-Link.com,2013-07-16 07:44:00,
2013-07-16 04:00:00,68.9,68.6,30.03,NNW,337,0.0,-999.0,99,-99.99,,,0.01,Acu-Link.com,2013-07-16 08:00:00,
2013-07-16 04:15:00,68.9,68.6,30.03,NNW,337,0.0,-999.0,99,-99.99,,,0.01,Acu-Link.com,2013-07-16 08:15:00,
2013-07-16 04:30:00,68.9,68.6,30.02,NNW,337,0.0,-999.0,99,-99.99,,,0.01,Acu-Link.com,2013-07-16 08:30:00,
2013-07-16 04:45:00,68.9,68.6,30.02,NNW,337,0.0,-999.0,99,-99.99,,,0.01,Acu-Link.com,2013-07-16 08:45:00,
2013-07-16 05:00:00,68.9,68.6,30.02,East,90,0.0,-999.0,99,-99.99,,,0.01,Acu-Link.com,2013-07-16 09:00:00,
2013-07-16 05:15:00,68.7,68.4,30.02,East,90,0.0,-999.0,99,-99.99,,,0.01,Acu-Link.com,2013-07-16 09:15:00,
2013-07-16 05:31:00,68.5,68.2,30.02,East,90,0.0,-999.0,99,-99.99,,,0.01,Acu-Link.com,2013-07-16 09:31:00,
2013-07-16 05:46:00,68.4,68.1,30.02,South,180,0.0,-999.0,99,-99.99,,,0.01,Acu-Link.com,2013-07-16 09:46:00,
2013-07-16 06:01:00,68.0,67.7,30.03,ENE,67,0.0,-999.0,99,-99.99,,,0.01,Acu-Link.com,2013-07-16 10:01:00,
2013-07-16 06:16:00,67.8,67.5,30.03,ENE,67,0.0,-999.0,99,-99.99,,,0.01,Acu-Link.com,2013-07-16 10:16:00,
2013-07-16 06:32:00,67.6,67.3,30.03,East,90,0.0,-999.0,99,-99.99,,,0.01,Acu-Link.com,2013-07-16 10:32:00,
2013-07-16 06:47:00,67.3,67.0,30.03,East,90,0.0,-999.0,99,-99.99,,,0.01,Acu-Link.com,2013-07-16 10:47:00,
2013-07-16 07:02:00,67.3,67.0,30.03,East,90,0.0,-999.0,99,-99.99,,,0.01,Acu-Link.com,2013-07-16 11:02:00,
2013-07-16 07:18:00,67.6,67.3,30.03,South,180,1.1,-999.0,99,-99.99,,,0.01,Acu-Link.com,2013-07-16 11:18:00,
2013-07-16 07:33:00,68.2,67.9,30.04,ESE,112,0.0,-999.0,99,-99.99,,,0.01,Acu-Link.com,2013-07-16 11:33:00,
2013-07-16 07:48:00,68.5,68.2,30.04,ESE,112,0.0,-999.0,99,-99.99,,,0.01,Acu-Link.com,2013-07-16 11:48:00,
2013-07-16 08:03:00,68.7,68.4,30.04,SE,135,0.0,-999.0,99,-99.99,,,0.01,Acu-Link.com,2013-07-16 12:03:00,
2013-07-16 08:18:00,69.3,69.0,30.05,SSW,202,0.0,-999.0,99,-99.99,,,0.01,Acu-Link.com,2013-07-16 12:18:00,
2013-07-16 08:34:00,69.4,69.1,30.05,ENE,67,0.0,-999.0,99,-99.99,,,0.01,Acu-Link.com,2013-07-16 12:34:00,
2013-07-16 08:49:00,69.8,69.5,30.06,NNE,22,0.0,-999.0,99,-99.99,,,0.01,Acu-Link.com,2013-07-16 12:49:00,
2013-07-16 09:04:00,70.2,69.9,30.06,NW,315,0.0,-999.0,99,-99.99,,,0.01,Acu-Link.com,2013-07-16 13:04:00,
2013-07-16 09:19:00,70.9,70.3,30.06,WNW,292,0.0,-999.0,98,-99.99,,,0.01,Acu-Link.com,2013-07-16 13:19:00,
2013-07-16 09:34:00,72.5,71.0,30.06,NE,45,0.0,-999.0,95,-99.99,,,0.01,Acu-Link.com,2013-07-16 13:34:00,
2013-07-16 09:49:00,74.1,71.3,30.05,NE,45,0.0,-999.0,91,-99.99,,,0.01,Acu-Link.com,2013-07-16 13:49:00,
2013-07-16 10:05:00,75.0,71.5,30.05,NE,45,0.0,-999.0,89,-99.99,,,0.01,Acu-Link.com,2013-07-16 14:05:00,
2013-07-16 10:20:00,76.1,71.6,30.05,West,270,0.0,-999.0,86,-99.99,,,0.01,Acu-Link.com,2013-07-16 14:20:00,
2013-07-16 10:35:00,76.1,70.9,30.05,North,0,0.0,-999.0,84,-99.99,,,0.01,Acu-Link.com,2013-07-16 14:35:00,
2013-07-16 10:50:00,77.2,70.9,30.05,East,90,0.0,-999.0,81,-99.99,,,0.01,Acu-Link.com,2013-07-16 14:50:00,
2013-07-16 11:06:00,78.6,71.5,30.05,South,180,0.0,-999.0,79,-99.99,,,0.01,Acu-Link.com,2013-07-16 15:06:00,
2013-07-16 11:21:00,79.0,71.2,30.05,SSW,202,0.0,-999.0,77,-99.99,,,0.01,Acu-Link.com,2013-07-16 15:21:00,
2013-07-16 11:36:00,78.8,71.0,30.05,NE,45,0.0,-999.0,77,-99.99,,,0.01,Acu-Link.com,2013-07-16 15:36:00,
2013-07-16 11:51:00,80.4,72.1,30.04,West,270,0.0,-999.0,76,-99.99,,,0.01,Acu-Link.com,2013-07-16 15:51:00,
2013-07-16 12:07:00,81.3,72.2,30.04,NE,45,0.0,-999.0,74,-99.99,,,0.01,Acu-Link.com,2013-07-16 16:07:00,
2013-07-16 12:22:00,80.4,71.3,30.04,NNE,22,0.0,-999.0,74,-99.99,,,0.01,Acu-Link.com,2013-07-16 16:22:00,
2013-07-16 12:37:00,82.4,72.4,30.04,SSW,202,1.7,-999.0,72,-99.99,,,0.01,Acu-Link.com,2013-07-16 16:37:00,
2013-07-16 12:52:00,82.0,71.6,30.03,South,180,0.0,-999.0,71,-99.99,,,0.01,Acu-Link.com,2013-07-16 16:52:00,
2013-07-16 13:08:00,82.4,71.2,30.03,WSW,247,0.0,-999.0,69,-99.99,,,0.01,Acu-Link.com,2013-07-16 17:08:00,
2013-07-16 13:23:00,82.6,68.2,30.03,ENE,67,2.7,-999.0,62,-99.99,,,0.01,Acu-Link.com,2013-07-16 17:23:00,
2013-07-16 13:38:00,84.0,68.1,30.03,SW,225,0.0,-999.0,59,-99.99,,,0.01,Acu-Link.com,2013-07-16 17:38:00,
2013-07-16 13:53:00,86.4,68.8,30.02,East,90,2.7,-999.0,56,-99.99,,,0.01,Acu-Link.com,2013-07-16 17:53:00,
2013-07-16 14:08:00,83.5,70.9,30.01,NNE,22,0.0,-999.0,66,-99.99,,,0.01,Acu-Link.com,2013-07-16 18:08:00,
2013-07-16 14:24:00,84.6,68.7,30.01,ENE,67,2.2,-999.0,59,-99.99,,,0.01,Acu-Link.com,2013-07-16 18:24:00,
2013-07-16 14:39:00,84.0,70.9,30.01,WSW,247,1.1,-999.0,65,-99.99,,,0.01,Acu-Link.com,2013-07-16 18:39:00,
2013-07-16 14:54:00,82.9,68.5,30.00,East,90,2.2,-999.0,62,-99.99,,,0.01,Acu-Link.com,2013-07-16 18:54:00,
2013-07-16 15:09:00,84.7,68.3,30.00,ENE,67,2.2,-999.0,58,-99.99,,,0.01,Acu-Link.com,2013-07-16 19:09:00,
2013-07-16 15:25:00,84.7,68.8,30.00,ENE,67,2.2,-999.0,59,-99.99,,,0.01,Acu-Link.com,2013-07-16 19:25:00,
2013-07-16 15:40:00,84.6,69.2,30.00,East,90,0.0,-999.0,60,-99.99,,,0.01,Acu-Link.com,2013-07-16 19:40:00,
2013-07-16 15:55:00,83.7,68.3,29.99,East,90,1.7,-999.0,60,-99.99,,,0.01,Acu-Link.com,2013-07-16 19:55:00,
2013-07-16 16:10:00,82.6,67.3,29.98,East,90,2.7,-999.0,60,-99.99,,,0.01,Acu-Link.com,2013-07-16 20:10:00,
2013-07-16 16:26:00,82.8,68.4,29.99,West,270,0.0,-999.0,62,-99.99,,,0.01,Acu-Link.com,2013-07-16 20:26:00,
2013-07-16 16:41:00,85.1,68.6,29.99,SE,135,1.1,-999.0,58,-99.99,,,0.01,Acu-Link.com,2013-07-16 20:41:00,
2013-07-16 16:56:00,82.8,68.9,29.98,NE,45,0.0,-999.0,63,-99.99,,,0.01,Acu-Link.com,2013-07-16 20:56:00,
2013-07-16 17:11:00,85.5,68.5,29.98,East,90,1.7,-999.0,57,-99.99,,,0.01,Acu-Link.com,2013-07-16 21:11:00,
2013-07-16 17:27:00,84.7,66.7,29.98,East,90,1.7,-999.0,55,-99.99,,,0.01,Acu-Link.com,2013-07-16 21:27:00,
2013-07-16 17:42:00,83.5,69.6,29.98,NE,45,0.0,-999.0,63,-99.99,,,0.01,Acu-Link.com,2013-07-16 21:42:00,
2013-07-16 17:57:00,82.9,69.0,29.97,ENE,67,0.0,-999.0,63,-99.99,,,0.01,Acu-Link.com,2013-07-16 21:57:00,
2013-07-16 18:12:00,82.6,68.7,29.97,East,90,0.0,-999.0,63,-99.99,,,0.01,Acu-Link.com,2013-07-16 22:12:00,
2013-07-16 18:28:00,81.7,68.8,29.97,ENE,67,0.0,-999.0,65,-99.99,,,0.01,Acu-Link.com,2013-07-16 22:28:00,
2013-07-16 18:43:00,81.5,69.9,29.97,East,90,0.0,-999.0,68,-99.99,,,0.01,Acu-Link.com,2013-07-16 22:43:00,
2013-07-16 18:58:00,81.0,69.8,29.97,East,90,0.0,-999.0,69,-99.99,,,0.01,Acu-Link.com,2013-07-16 22:58:00,
2013-07-16 19:13:00,80.2,70.3,29.97,East,90,0.0,-999.0,72,-99.99,,,0.01,Acu-Link.com,2013-07-16 23:13:00,
2013-07-16 19:29:00,79.7,69.9,29.97,ENE,67,0.0,-999.0,72,-99.99,,,0.01,Acu-Link.com,2013-07-16 23:29:00,
2013-07-16 19:44:00,79.0,70.8,29.98,SE,135,0.0,-999.0,76,-99.99,,,0.01,Acu-Link.com,2013-07-16 23:44:00,
2013-07-16 19:59:00,77.9,71.6,29.98,North,0,0.0,-999.0,81,-99.99,,,0.01,Acu-Link.com,2013-07-16 23:59:00,
2013-07-16 20:14:00,77.4,71.8,29.99,North,0,0.0,-999.0,83,-99.99,,,0.01,Acu-Link.com,2013-07-17 00:14:00,
2013-07-16 20:30:00,76.1,72.3,29.99,North,0,0.0,-999.0,88,-99.99,,,0.01,Acu-Link.com,2013-07-17 00:30:00,
2013-07-16 20:45:00,75.0,71.9,29.99,North,0,0.0,-999.0,90,-99.99,,,0.01,Acu-Link.com,2013-07-17 00:45:00,
2013-07-16 21:00:00,73.9,71.4,29.99,North,0,0.0,-999.0,92,-99.99,,,0.01,Acu-Link.com,2013-07-17 01:00:00,
2013-07-16 21:15:00,74.1,71.3,29.99,SSW,202,0.0,-999.0,91,-99.99,,,0.01,Acu-Link.com,2013-07-17 01:15:00,
2013-07-16 21:31:00,73.6,70.8,30.00,SSW,202,0.0,-999.0,91,-99.99,,,0.01,Acu-Link.com,2013-07-17 01:31:00,
2013-07-16 21:46:00,73.0,70.2,30.00,SSW,202,0.0,-999.0,91,-99.99,,,0.01,Acu-Link.com,2013-07-17 01:46:00,
2013-07-16 22:01:00,72.5,70.0,30.01,SSW,202,0.0,-999.0,92,-99.99,,,0.01,Acu-Link.com,2013-07-17 02:01:00,
2013-07-16 22:17:00,72.3,70.5,30.01,South,180,0.0,-999.0,94,-99.99,,,0.01,Acu-Link.com,2013-07-17 02:17:00,
2013-07-16 22:32:00,72.0,70.2,30.01,SSE,157,0.0,-999.0,94,-99.99,,,0.01,Acu-Link.com,2013-07-17 02:32:00,
2013-07-16 22:47:00,71.6,70.4,30.01,SSE,157,0.0,-999.0,96,-99.99,,,0.01,Acu-Link.com,2013-07-17 02:47:00,
2013-07-16 23:03:00,71.4,69.9,30.00,West,270,0.0,-999.0,95,-99.99,,,0.01,Acu-Link.com,2013-07-17 03:03:00,
2013-07-16 23:18:00,70.7,69.8,29.99,NW,315,0.0,-999.0,97,-99.99,,,0.01,Acu-Link.com,2013-07-17 03:18:00,
2013-07-16 23:33:00,70.9,70.0,30.00,South,180,0.0,-999.0,97,-99.99,,,0.01,Acu-Link.com,2013-07-17 03:33:00,
2013-07-16 23:48:00,70.9,69.4,30.00,South,180,0.0,-999.0,95,-99.99,,,0.01,Acu-Link.com,2013-07-17 03:48:00,